Location: Chimay
(50.0486°N, 4.3171°E)
Time: 07:47:20
(UTC+00:00)

USA 267 - Pass Details

Date: 08 August 2020
Orbit: 1101 x 1106 km, 123.0° (Epoch: 22 September)

Event Time Altitude Azimuth Distance (km) Brightness Sun altitude
Rises 19:39:33 0° 57° (ENE) 3,930 5.9 -4.5°
Reaches altitude 10° 19:42:13 10° 64° (ENE) 2,970 5.2 -4.9°
Maximum altitude 19:48:22 42° 134° (SE) 1,539 3.6 -5.7°
Drops below altitude 10° 19:54:29 10° 203° (SSW) 2,959 5.4 -6.6°
Sets 19:57:08 0° 211° (SSW) 3,915 6.1 -6.9°
